Location: Cutler
(25.6150°N, 80.3110°W)
Time: 01:30:34
(UTC-05:00)

N. Korean satellite - Pass Details

Date: 15 November 2017
Orbit: 460 x 515 km, 97.2° (Epoch: 17 November)

Event Time Altitude Azimuth Distance (km) Brightness Sun altitude
Rises 18:18:44 0° 159° (SSE) 2,468 10.1 -10.7°
Reaches altitude 10° 18:20:47 10° 155° (SSE) 1,598 9.1 -11.2°
Maximum altitude 18:24:08 53° 77° (ENE) 572 6.5 -11.9°
Drops below altitude 10° 18:27:31 10° 360° (N) 1,619 9.1 -12.6°
Sets 18:29:36 0° 355° (N) 2,504 10.1 -13.1°
